Location: La Tine
(46.4708°N, 7.0525°E)
Time: 00:50:16
(UTC+00:00)

Abrixas rocket - Pass Details

Date: 18 September 2020
Orbit: 327 x 334 km, 48.4° (Epoch: 29 October)

Event Time Altitude Azimuth Distance (km) Brightness Sun altitude
Rises 17:48:39 0° 245° (WSW) 2,093 7.0 -2.9°
Reaches altitude 10° 17:50:39 10° 243° (WSW) 1,256 5.7 -3.2°
Maximum altitude 17:53:26 68° 159° (SSE) 358 1.8 -3.7°
Drops below altitude 10° 17:56:13 10° 76° (ENE) 1,254 4.1 -4.2°
Enters shadow 17:57:16 - 74° (ENE) 1,691 4.7 -4.4°
